FW5336 Weather Reports


Display with metric or nautical units.
time (UTC)temp
F
wind
direction
speed
MPH
gust
MPH
rain 1hr
in
rain 24hr
in
rain mn
in
humidity
%
barometer
mb
20260503235631 59 293 4.0 8.0 0.00 0.00 0.00 54
20260503235128 59 279 3.0 10.0 0.00 0.00 0.00 52
20260503234626 60 224 5.0 11.0 0.00 0.00 0.00 49
20260503234124 60 246 1.0 6.0 0.00 0.00 0.00 46
20260503233621 60 260 4.0 6.0 0.00 0.00 0.00 45
20260503233116 60 309 4.0 7.0 0.00 0.00 0.00 44
20260503232613 61 337 4.0 7.0 0.00 0.00 0.00 43
20260503232111 61 131 5.0 6.0 0.00 0.00 0.00 42
20260503231609 61 270 4.0 10.0 0.00 0.00 0.00 42
20260503231105 62 259 2.0 7.0 0.00 0.00 0.00 42
20260503230602 62 278 3.0 6.0 0.00 0.00 0.00 42
20260503230059 62 184 1.0 3.0 0.00 0.00 0.00 43
20260503225556 62 336 4.0 6.0 0.00 0.00 0.00 42
20260503225051 62 292 3.0 8.0 0.00 0.00 0.00 41
20260503224549 62 309 2.0 8.0 0.00 0.00 0.00 42
20260503224046 63 159 2.0 6.0 0.00 0.00 0.00 42
20260503223544 64 258 2.0 7.0 0.00 0.00 0.00 40
20260503223039 64 259 7.0 10.0 0.00 0.00 0.00 40
20260503222538 64 246 1.0 9.0 0.00 0.00 0.00 40
20260503222035 63 317 2.0 7.0 0.00 0.00 0.00 41
20260503221533 63 320 3.0 6.0 0.00 0.00 0.00 40
20260503221031 63 290 3.0 9.0 0.00 0.00 0.00 40
20260503220527 63 196 3.0 6.0 0.00 0.00 0.00 40
20260503220023 64 287 2.0 11.0 0.00 0.00 0.00 39
20260503215521 63 279 4.0 8.0 0.00 0.00 0.00 39
20260503215018 64 314 7.0 10.0 0.00 0.00 0.00 38
20260503214516 64 201 4.0 10.0 0.00 0.00 0.00 39
20260503214012 65 275 3.0 6.0 0.00 0.00 0.00 38
20260503213511 64 283 4.0 8.0 0.00 0.00 0.00 39
20260503213007 64 285 3.0 15.0 0.00 0.00 0.00 39
20260503212505 67 228 8.0 21.0 0.00 0.00 0.00 37
20260503212002 66 295 1.0 6.0 0.00 0.00 0.00 38
20260503211459 65 279 5.0 7.0 0.00 0.00 0.00 38
20260503210954 64 308 4.0 15.0 0.00 0.00 0.00 38
20260503210451 65 270 5.0 13.0 0.00 0.00 0.00 37
20260503205946 63 315 4.0 10.0 0.00 0.00 0.00 39
20260503205443 64 251 6.0 13.0 0.00 0.00 0.00 37
20260503204939 64 290 7.0 14.0 0.00 0.00 0.00 37
20260503204436 64 279 3.0 6.0 0.00 0.00 0.00 38
20260503203933 66 317 6.0 8.0 0.00 0.00 0.00 36
20260503203431 64 265 2.0 7.0 0.00 0.00 0.00 38
20260503202927 64 194 3.0 9.0 0.00 0.00 0.00 38
20260503202426 65 291 2.0 7.0 0.00 0.00 0.00 37
20260503201924 65 316 5.0 9.0 0.00 0.00 0.00 36
20260503201421 66 258 7.0 8.0 0.00 0.00 0.00 34
20260503200918 65 357 2.0 9.0 0.00 0.00 0.00 37
20260503200414 66 245 1.0 14.0 0.00 0.00 0.00 36
20260503195911 66 284 4.0 9.0 0.00 0.00 0.00 35
20260503195409 65 254 4.0 15.0 0.00 0.00 0.00 37
20260503194905 66 169 1.0 7.0 0.00 0.00 0.00 36
20260503194402 66 317 5.0 14.0 0.00 0.00 0.00 36
20260503193858 65 224 3.0 6.0 0.00 0.00 0.00 38
20260503193353 65 256 5.0 8.0 0.00 0.00 0.00 37
20260503192849 64 289 2.0 9.0 0.00 0.00 0.00 38
20260503192345 64 268 1.0 13.0 0.00 0.00 0.00 38
20260503191841 63 348 6.0 9.0 0.00 0.00 0.00 37
20260503191339 64 309 2.0 3.0 0.00 0.00 0.00 38
20260503190835 64 247 3.0 14.0 0.00 0.00 0.00 36
20260503190332 64 216 3.0 9.0 0.00 0.00 0.00 38
20260503185829 64 278 3.0 10.0 0.00 0.00 0.00 37
20260503185325 66 339 6.0 13.0 0.00 0.00 0.00 35
20260503184820 65 264 4.0 6.0 0.00 0.00 0.00 36
20260503184316 65 268 7.0 9.0 0.00 0.00 0.00 35
20260503183812 64 261 6.0 11.0 0.00 0.00 0.00 36
20260503183309 66 257 7.0 13.0 0.00 0.00 0.00 36
20260503182807 66 307 4.0 8.0 0.00 0.00 0.00 37
20260503182306 65 277 6.0 13.0 0.00 0.00 0.00 37
20260503181803 66 264 6.0 8.0 0.00 0.00 0.00 36
20260503181300 64 304 4.0 9.0 0.00 0.00 0.00 37
20260503180756 64 262 3.0 7.0 0.00 0.00 0.00 38
20260503180254 64 264 3.0 11.0 0.00 0.00 0.00 38
20260503175750 65 312 5.0 14.0 0.00 0.00 0.00 36
20260503175249 65 263 2.0 9.0 0.00 0.00 0.00 38
20260503174744 64 230 1.0 8.0 0.00 0.00 0.00 40
20260503174242 64 248 2.0 7.0 0.00 0.00 0.00 40
20260503173742 61 293 5.0 8.0 0.00 0.00 0.00 39
20260503173238 62 262 9.0 11.0 0.00 0.00 0.00 38
20260503172735 62 281 1.0 7.0 0.00 0.00 0.00 38
20260503172232 61 233 4.0 10.0 0.00 0.00 0.00 39
20260503171729 61 328 6.0 10.0 0.00 0.00 0.00 38
20260503171226 61 209 2.0 13.0 0.00 0.00 0.00 39
20260503170723 61 305 4.0 10.0 0.00 0.00 0.00 38
20260503170220 61 204 3.0 10.0 0.00 0.00 0.00 38
20260503160142 60 244 3.0 8.0 0.00 0.00 0.00 40
20260503150612 59 208 3.0 7.0 0.00 0.00 0.00 44
20260503150108 59 310 2.0 3.0 0.00 0.00 0.00 42
20260503131001 51 294 3.0 7.0 0.00 0.00 0.00 47
20260503130459 51 295 3.0 7.0 0.00 0.00 0.00 49
20260503110344 39 235 2.0 3.0 0.00 0.00 0.00 64
20260503090235 35 238 0.0 1.0 0.00 0.00 0.00 71
20260503081202 36 248 0.0 1.0 0.00 0.00 0.00 72
20260503080658 36 244 0.0 1.0 0.00 0.00 0.00 72
20260503080155 36 247 0.0 1.0 0.00 0.00 0.00 71
20260503072632 36 251 0.0 0.0 0.00 0.00 0.00 72
20260503072129 36 252 0.0 1.0 0.00 0.00 0.00 72
20260503071626 36 240 0.0 0.0 0.00 0.00 0.00 72
20260503071122 36 236 0.0 0.0 0.00 0.00 0.00 72
20260503070619 36 260 1.0 1.0 0.00 0.00 0.00 73
20260503070118 36 256 0.0 0.0 0.00 0.00 0.00 73
20260503055038 37 242 0.0 0.0 0.00 0.00 0.00 71
20260503054534 37 251 0.0 1.0 0.00 0.00 0.00 71
20260503054031 37 247 0.0 0.0 0.00 0.00 0.00 71
20260503053529 37 242 0.0 1.0 0.00 0.00 0.00 71
20260503053027 37 242 0.0 0.0 0.00 0.00 0.00 70
20260503052523 37 251 0.0 0.0 0.00 0.00 0.00 70
20260503052019 37 254 0.0 0.0 0.00 0.00 0.00 71
20260503051515 37 252 0.0 0.0 0.00 0.00 0.00 71
20260503051013 37 244 0.0 0.0 0.00 0.00 0.00 71
20260503050508 37 247 0.0 0.0 0.00 0.00 0.00 71
20260503050006 37 247 0.0 0.0 0.00 0.00 0.00 71
20260503045503 37 244 0.0 0.0 0.00 0.00 0.00 71
20260503045000 37 246 0.0 0.0 0.00 0.00 0.00 71
20260503044457 37 246 0.0 0.0 0.00 0.00 0.00 71
20260503043955 37 248 0.0 0.0 0.00 0.00 0.00 71
20260503043450 37 248 0.0 0.0 0.00 0.00 0.00 70
20260503042947 37 248 0.0 0.0 0.00 0.00 0.00 70
20260503042444 37 251 0.0 0.0 0.00 0.00 0.00 70
20260503041941 37 246 0.0 0.0 0.00 0.00 0.00 70
20260503041437 37 247 0.0 0.0 0.00 0.00 0.00 69
20260503040935 38 247 0.0 0.0 0.00 0.00 0.00 69
20260503040432 38 239 0.0 0.0 0.00 0.00 0.00 69
20260503035929 38 238 0.0 0.0 0.00 0.03 0.03 68
20260503035426 38 238 0.0 0.0 0.00 0.03 0.03 68
20260503034924 38 238 0.0 0.0 0.00 0.03 0.03 68
20260503034421 38 238 0.0 0.0 0.00 0.03 0.03 68
20260503033918 38 238 0.0 0.0 0.00 0.03 0.03 69
20260503033415 38 238 0.0 0.0 0.00 0.03 0.03 69
20260503032913 37 235 0.0 0.0 0.00 0.03 0.03 70
20260503032412 37 235 0.0 0.0 0.00 0.03 0.03 71
20260503031909 37 235 0.0 0.0 0.00 0.03 0.03 71
20260503031407 37 235 0.0 0.0 0.00 0.03 0.03 71
20260503030903 37 235 0.0 0.0 0.00 0.03 0.03 71
20260503030359 38 235 0.0 0.0 0.00 0.03 0.03 70
20260503025856 38 234 0.0 0.0 0.00 0.03 0.03 70
20260503025353 38 234 0.0 0.0 0.00 0.03 0.03 70
20260503024850 38 234 0.0 0.0 0.00 0.03 0.03 70
20260503024347 39 234 0.0 0.0 0.00 0.03 0.03 68
20260503023844 39 233 0.0 0.0 0.00 0.03 0.03 68
20260503023341 39 233 0.0 0.0 0.00 0.03 0.03 67
20260503022837 39 232 0.0 0.0 0.00 0.03 0.03 66
20260503022332 40 229 0.0 0.0 0.00 0.03 0.03 65
20260503021829 40 224 0.0 0.0 0.00 0.03 0.03 64
20260503021325 41 231 0.0 0.0 0.00 0.03 0.03 63
20260503020823 40 231 0.0 0.0 0.00 0.03 0.03 63
20260503020321 41 233 0.0 0.0 0.00 0.03 0.03 63
20260503015817 41 233 0.0 0.0 0.00 0.03 0.03 62
20260503015314 41 233 0.0 0.0 0.00 0.03 0.03 62
20260503014809 41 233 0.0 0.0 0.00 0.03 0.03 60
20260503014307 42 232 0.0 0.0 0.00 0.03 0.03 59
20260503013804 42 232 0.0 0.0 0.00 0.03 0.03 57
20260503013302 42 231 0.0 0.0 0.00 0.03 0.03 57
20260503012759 42 230 0.0 0.0 0.00 0.03 0.03 56
20260503012256 43 230 0.0 0.0 0.00 0.03 0.03 55
20260503011753 43 229 0.0 0.0 0.00 0.03 0.03 54
20260503011250 43 224 0.0 0.0 0.00 0.03 0.03 53
20260503010746 44 233 0.0 0.0 0.00 0.03 0.03 53
20260503010243 44 234 0.0 0.0 0.00 0.03 0.03 51
20260503005740 45 236 0.0 0.0 0.00 0.03 0.03 50
20260503005238 45 238 0.0 0.0 0.00 0.03 0.03 48
20260503004733 45 246 0.0 0.0 0.00 0.03 0.03 48
20260503004232 46 258 0.0 0.0 0.00 0.03 0.03 47
20260503003729 46 262 0.0 0.0 0.00 0.03 0.03 46
20260503003226 46 265 0.0 1.0 0.00 0.03 0.03 46
20260503002722 47 250 0.0 1.0 0.00 0.03 0.03 46
20260503002219 47 260 0.0 2.0 0.00 0.03 0.03 46
20260503001715 48 246 0.0 2.0 0.00 0.03 0.03 45
20260503001212 48 270 1.0 3.0 0.00 0.03 0.03 44
20260503000710 48 305 1.0 1.0 0.00 0.03 0.03 44
20260503000207 48 257 0.0 1.0 0.00 0.03 0.03 45